• Processing (Info)

  • MPEC 2019-R96 : 2019 RB3

    The following Minor Planet Electronic Circular may be linked-to from your own Web pages, but must not otherwise be redistributed electronically.

    A form allowing access to any MPEC is at the bottom of this page.


    Read MPEC 2019-R95 Read MPEC 2019-R97


    M.P.E.C. 2019-R96                            Issued 2019 September 10, 14:17 UT
    
         The Minor Planet Electronic Circulars contain information on unusual
             minor planets and routine data on comets.  They are published
        on behalf of Division F of the International Astronomical Union by the
              Minor Planet Center, Smithsonian Astrophysical Observatory,
                              Cambridge, MA 02138, U.S.A.
    
                 Prepared using the Tamkin Foundation Computer Network
    
                                  MPC@CFA.HARVARD.EDU
                URL https://www.minorplanetcenter.net/    ISSN 1523-6714
    
                                    2019 RB3                                 
    
    
    Observations:
         K19R03B* C2019 09 06.38298 00 44 41.659+31 41 39.87         20.5 iUER096F51
         K19R03B  C2019 09 06.39160 00 44 44.874+31 41 27.52         21.0 iUER096F51
         K19R03B  C2019 09 06.40020 00 44 48.072+31 41 14.85         21.1 iUER096F51
         K19R03B  C2019 09 06.64546100 46 19.136+31 34 20.88         21.2 GVER096F51
         K19R03B KC2019 09 07.11522900 49 37.03 +31 19 56.8          21.0 GVER096L01
         K19R03B KC2019 09 07.11697700 49 37.73 +31 19 53.8          20.9 GVER096L01
         K19R03B KC2019 09 07.11873400 49 38.40 +31 19 50.7          21.0 GVER096L01
         K19R03B KC2019 09 07.11917500 49 38.59 +31 19 49.6          21.0 GVER096L01
         K19R03B KC2019 09 07.12269300 49 40.01 +31 19 42.4          20.9 GVER096L01
         K19R03B KC2019 09 07.27494100 50 48.92 +31 15 03.8          21.2 VuER096H21
         K19R03B KC2019 09 07.27930400 50 50.68 +31 14 55.7          21.3 VuER096H21
         K19R03B KC2019 09 07.28381100 50 52.50 +31 14 47.3          21.5 VuER096H21
         K19R03B KC2019 09 07.30112 00 51 01.03 +31 14 24.1                oER096711
         K19R03B KC2019 09 07.30800 00 51 03.75 +31 14 11.3                oER096711
         K19R03B KC2019 09 07.31115 00 51 05.03 +31 14 05.6                oER096711
         K19R03B KC2019 09 07.31467 00 51 06.50 +31 13 58.9                oER096711
         K19R03B  C2019 09 07.43751600 52 01.008+31 10 08.09         21.2 GVER096F51
         K19R03B ^C2019 09 07.45093200 52 06.366+31 09 44.17         20.84GVER096568
         K19R03B ^C2019 09 07.45284300 52 07.127+31 09 40.56         20.83GVER096568
         K19R03B ^C2019 09 07.45477100 52 07.907+31 09 36.87         20.90GVER096568
         K19R03B  C2019 09 07.45702900 52 08.894+31 09 31.20         21.1 GVER096F51
         K19R03B KC2019 09 10.30809301 16 14.11 +29 02 48.6          20.7 VuER096H21
         K19R03B KC2019 09 10.31597101 16 18.39 +29 02 21.3          21.0 VuER096H21
         K19R03B KC2019 09 10.32297201 16 22.25 +29 01 57.3          21.2 VuER096H21
    
    Observer details:
    568 Mauna Kea.  Observers R. Wainscoat, C. Wipper, T. Burdullis.  Measurers R. 
       Weryk, R. Wainscoat.  3.6-m Canada-France-Hawaii Telescope + CCD.
    711 McDonald Observatory, Fort Davis.  Observers J. G. Ries, J. W. Kuehne.  
        Measurer J. G. Ries.  2.1-m reflector + CCD + focal reducer.
    F51 Pan-STARRS 1, Haleakala.  Observers J. Bulger, T. Lowe, A. Schultz, M. 
       Willman, K. Chambers, E. Magnier.  Measurers K. Chambers, S. Chastel, T. de 
       Boer, L. Denneau, J. Fairlamb, H. Flewelling, M. Huber, C.-C. Lin, E. 
       Magnier, Y. Ramanjooloo, R. Wainscoat, R. Weryk.  1.8-m Ritchey-Chretien + 
       CCD.
    H21 Astronomical Research Observatory, Westfield.  Observer R. Holmes.  
        Measurers S. Foglia, L. Buzzi, T. Linder, R. Holmes.  0.81-m f/4.0 
       astrograph + CCD.
    L01 Visnjan Observatory, Tican.  Observers K. Korlevic, F. Valentine.  Measurer 
       K. Korlevic.  1.0-m f/2.9 reflector + CCD.
    
    Orbital elements:
    2019 RB3                                                 Earth MOID = 0.0273 AU
    Epoch 2019 Apr. 27.0 TT = JDT 2458600.5                 Pan
    M 199.62818              (2000.0)            P               Q
    n   0.76726084     Peri.  261.40304     +0.21544412     -0.97633991
    a   1.1817003      Node   176.00922     +0.96752913     +0.21085111
    e   0.2834553      Incl.   15.46113     +0.13217873     +0.04798121
    P   1.28           H   24.2           G   0.15           U   7
    Residuals in seconds of arc
    190906 F51  0.0   0.3-    190907 L01  0.3-  0.1-    190907 F51  0.3+  0.3-
    190906 F51  0.0   0.0     190907 H21  0.2-  0.1+    190907 568  0.1+  0.1-
    190906 F51  0.0   0.0     190907 H21  0.2-  0.2+    190907 568  0.1-  0.1-
    190906 F51  0.1+  0.2+    190907 H21  0.2-  0.3+    190907 568  0.1-  0.1-
    190907 L01  0.1-  0.4-    190907 711  0.3+  0.4+    190907 F51  0.0   0.1-
    190907 L01  0.1-  0.1+    190907 711  0.3-  0.4+    190910 H21  0.3+  0.2+
    190907 L01  0.6-  0.4+    190907 711  0.1-  0.6+    190910 H21  0.3-  0.2-
    190907 L01  0.4-  0.2+    190907 711  0.6+  0.4+    190910 H21  0.1-  0.1-
    
    Ephemeris:
    2019 RB3                 a,e,i = 1.18, 0.28, 15                  q = 0.8467
    Date    TT    R. A. (2000) Decl.     Delta      r    Elong.  Phase     V
    2019 08 11    23 23 15.2 +31 25 18   0.3034  1.2121   124.7    43.5    23.7
    ...
    2019 08 26    23 55 03.5 +33 22 30   0.1931  1.1448   130.1    42.5    22.6
    ...
    2019 09 03    00 25 13.4 +32 47 40   0.1379  1.1077   133.0    41.8    21.8
    ...
    2019 09 09    01 04 18.3 +30 09 34   0.09945 1.0796   134.6    41.6    21.0
    2019 09 10    01 13 15.9 +29 20 18   0.09342 1.0749   134.7    41.8    20.8
    2019 09 11    01 23 11.5 +28 20 42   0.08755 1.0702   134.6    42.0    20.7
    ...
    2019 09 17    02 50 34.2 +16 08 20   0.05785 1.0423   128.5    49.0    19.9
    ...
    2019 09 25    05 58 46.1 -19 45 55   0.05374 1.0058    91.3    85.6    20.9
    ...
    2019 10 10    09 07 09.2 -37 46 32   0.1323  0.9420    61.1   111.8    24.0
    
    A. U. Tomatic                (C) Copyright 2019 MPC           M.P.E.C. 2019-R96
    


    Read MPEC 2019-R95 Read MPEC 2019-R97


    MPEC number:

    Enter an MPEC number in one of the following forms:

    • 1997-B01 (the full form)
    • J97B01 (the packed version of the full form)
    • B01 (the abbreviated form)